Regional Weather Roundup
Issued by NWS Grand Forks, ND

Home | Current Version | Previous Version | Graphics & Text | Print | Product List | Glossary On
Versions: 1 2 3 4 5 6 7 8 9 10 11 12 13 14 15 16 17 18 19 20 21 22 23 24 25 26 27 28 29 30 31 32 33 34 35 36 37 38 39 40 41 42 43 44 45 46 47 48 49 50
000
ASUS43 KFGF 012231
RWRFGF
PRAIRIE TO PINES  WEATHER ROUNDUP
NATIONAL WEATHER SERVICE EASTERN NORTH DAKOTA/GRAND FORKS ND
500 PM CDT TUE SEP 01 2015

 **SATELLITE DATA USED TO AUGMENT SKY COVER AT AUTOMATED STATIONS**
 *****  WEATHER ACROSS EASTERN NORTH DAKOTA  *****

CITY           SKY/WX    TMP DP  RH WIND       PRES   REMARKS
GRAND FORKS    MOSUNNY   88  52  29 S13       29.81F
GRAND FRKS AFB SUNNY     87  50  28 S10       29.82F
GRAND FRKS NWS   N/A     86 N/A N/A S9          N/A
DEVILS LAKE    SUNNY     84  52  32 S16       29.80F
FARGO          MOSUNNY   89  51  27 E13G18    29.81F
WAHPETON ARPT  MOCLDY    84  63  48 E9G16     29.81F
$$

 ***** WEATHER ACROSS CENTRAL AND WESTERN NORTH DAKOTA  *****

CITY           SKY/WX    TMP DP  RH WIND       PRES   REMARKS
BISMARCK       SUNNY     88  62  41 SE8       29.78F
MINOT          SUNNY     89  52  28 S17       29.75F
JAMESTOWN      SUNNY     86  64  47 SE10      29.81F
MINOT AFB      SUNNY     90  56  31 S17       29.73F
GARRISON         N/A     89  57  33 S12       29.78F
WILLISTON      SUNNY     93  45  19 SW12      29.73F
DICKINSON      SUNNY     88  55  32 SE13      29.78F
HETTINGER      SUNNY     88  55  32 SE8       29.81F
$$

 *****  OTHER AIRPORT OBSERVATIONS IN OUR AREA  *****

CITY           SKY/WX    TMP DP  RH WIND       PRES   REMARKS
WALHALLA       FAIR      86  55  35 MISG      29.79S
GRAFTON AIRPOR FAIR      86  55  35 S12       29.82S
VALLEY CITY AR FAIR      84  63  48 E12G18    29.82F
CANDO          FAIR      86  52  30 S17G23    29.80F
CAVALIER APRT  FAIR      86  55  35 SW6       29.80S
GWINNER        FAIR      84  70  61 E12       29.82S
SHEYENNE NWR     N/A     86  64  47 SE9       29.95S
ROLLA            N/A     84  52  32 S12G18    29.81F
 ***** THE ABOVE OBSERVATIONS ARE NON NWS ARE NOT QUALITY
       CONTROLLED AND MAY MIS-REPORT RAIN FOR SNOW...
$$

  *****  WEATHER ACROSS NORTHERN MINNESOTA  *****

CITY           SKY/WX    TMP DP  RH WIND       PRES   REMARKS
FLAG ISLAND    SUNNY     75  59  57 S5        29.84S
WARROAD        SUNNY     82  57  42 SW7       29.86S
ROSEAU         SUNNY     84  57  39 SW7       29.85S
HALLOCK        SUNNY     86  52  30 S13       29.81S
THF RVR FALLS  SUNNY     84  52  32 S6        29.85F
BAUDETTE       SUNNY     83  52  34 SW6       29.87R
WASKISH        SUNNY     81  59  47 CALM      29.89S
CROOKSTON      SUNNY     88  46  23 S9        29.83F
STEPHEN NDAWN    N/A     86  55  35 S9          N/A
GREENBUSH NDAW   N/A     84  54  34 SW8         N/A
$$
  *****  WEATHER ACROSS CENTRAL AND WEST MINNESOTA  *****

CITY           SKY/WX    TMP DP  RH WIND       PRES   REMARKS
FOSSTON        SUNNY     88  48  25 SE6       29.87F
BEMIDJI        MOSUNNY   84  53  35 SE8       29.89F
PARK RAPIDS    PTSUNNY   85  49  28 SE8       29.89F
ELBOW LAKE     FAIR      81  72  75 SE9       29.84S
WADENA         CLOUDY    81  63  54 E7        29.88F
DETROIT LAKES  PTSUNNY   82  50  32 SE9       29.88F
MOORHEAD       MOSUNNY   88  48  25 SE10      29.83F
FERGUS FALLS   CLOUDY    82  64  54 E8        29.82F
MORRIS MN      CLOUDY    81  72  74 E9        29.84S
STAPLES        CLOUDY    82  61  47 CALM      29.90R
$$
  *****  WEATHER ELSEWHERE ACROSS MINNESOTA  *****

CITY           SKY/WX    TMP DP  RH WIND       PRES   REMARKS
DULUTH         MOSUNNY   82  64  54 SW3       29.91S
INTRNTL FALLS  SUNNY     81  53  37 W6        29.88S
ELY            SUNNY     79  48  34 W9        29.92S
CLOQUET        PTSUNNY   81  63  54 S5        29.91S
WHEATON        CLOUDY    79  72  78 SE12      29.85R
BRAINERD       CLOUDY    82  61  48 SE3       29.90F
HIBBING        MOSUNNY   83  48  29 CALM      29.91S
ALEXANDRIA     CLOUDY    81  72  74 SE10      29.89F
SAINT CLOUD    CLOUDY    82  72  71 S6        29.89S
MINNEAPOLIS    CLOUDY    85  72  65 S7        29.88F HX  91
$$

  *****  WEATHER ACROSS SOUTH DAKOTA  *****

CITY           SKY/WX    TMP DP  RH WIND       PRES   REMARKS
SIOUX FALLS    CLOUDY    79  68  69 CALM      29.88R
BROOKINGS      CLOUDY   N/A N/A N/A E8        29.88F
WATERTOWN      CLOUDY    79  65  62 SW15      29.88R
HURON          MOSUNNY   85  61  44 SE15      29.80F
SISSETON         N/A     85  72  65 S10       29.82R HX  91
ABERDEEN       SUNNY     86  71  60 S15       29.81F HX  91
MITCHELL       PTSUNNY   82  71  69 SE12      29.83R
PIERRE         SUNNY     93  60  33 SE17G28   29.75F HX  93
MOBRIDGE       SUNNY     91  66  43 SE15      29.74F HX  93
RAPID CITY     SUNNY     87  58  37 NE9       29.84F
$$

  *****  SOME WEATHER IN NEARBY STATES *****

CITY           SKY/WX    TMP DP  RH WIND       PRES   REMARKS
GLASGOW MT     SUNNY     87  36  16 W14G22    29.74F
GREAT FALLS MT PTSUNNY   84  32  15 SW14G30   29.80F
CHEYENNE WY    SUNNY     86  34  15 NW12G21   30.09S
SCOTTSBLUFF NE SUNNY     94  41  16 VRB5      29.91F HX  90
OMAHA NE       PTSUNNY   89  71  55 S14       29.90F HX  95
DES MOINES IA  CLOUDY    89  71  55 S8        29.94F HX  95
DAVENPORT IA   SUNNY     88  71  57 SW12      29.99S HX  94
CHICAGO IL     MOSUNNY   87  72  60 S12       29.99S HX  93
EAU CLAIRE WI  PTSUNNY   86  73  65 S7        29.89F HX  93
LA CROSSE WI   MOSUNNY   89  73  59 S12       29.90S HX  97
$$

  *****  SOME NATIONAL WEATHER *****

CITY           SKY/WX    TMP DP  RH WIND       PRES   REMARKS
LA GUARDIA NY  MOSUNNY   84  63  49 S8        30.00S
RALEIGH NC     PTSUNNY   90  65  43 E3        30.05S HX  92
ATLANTA GA     PTSUNNY   86  65  49 CALM      30.09F
NEW ORLEANS LA PTSUNNY   89  66  46 SE6       30.02S HX  91
OKLAHOMA CITY  MOSUNNY   91  64  40 S12G21    29.97F HX  92
ALBUQUERQUE NM PTSUNNY   84  44  24 SW18G32   30.14F
SALT LAKE CITY PTSUNNY   89  38  16 S18G28    29.90F
LOS ANGELES CA PTSUNNY   74  63  68 W16       29.90F
BOISE ID       MOSUNNY   84  42  22 NW7       29.82F
SEATTLE WA     CLOUDY    59  57  94 S8        29.85S
$$

*** WEATHER ACROSS MANITOBA...SASKATCHEWAN AND ONTARIO ***
                ***ONTARIO***

CITY           SKY/WX    TMP DP  RH WIND       PRES   REMARKS
GERALDTON      PTSUNNY   75  57  53 W9        29.85R
THUNDER BAY    PTSUNNY   81  55  41 NW9       29.87R
SIOUX LOOKOUT  MOSUNNY   79  50  36 NW9       29.86R
TORONTO        SUNNY     82  66  57 SE10      30.01S
BIG TROUT LK   SUNNY     72  59  64 N7        29.76R
PICKLE LAKE    MOSUNNY   81  50  34 W8        29.80R
DRYDEN         SUNNY     81  46  30 SW13      29.86S
KENORA         SUNNY     79  52  38 S9        29.87S
$$
                *** MANITOBA***

CITY           SKY/WX    TMP DP  RH WIND       PRES   REMARKS
BRANDON        MOSUNNY   88  54  31 W14G21    29.75F
DAUPHIN        SUNNY     84  50  30 S10G17    29.71F
ISLAND LAKE    PTSUNNY   75  63  64 SE9       29.71S
PILOT MOUND      N/A     86  48  26 S14G21      N/A
THE PAS        MOSUNNY   79  54  41 SE9G20    29.62S
THOMPSON       PTSUNNY   68  55  64 E5        29.70F
WINNIPEG       MOSUNNY   86  52  30 SE7       29.78F
CHURCHILL      CLOUDY    54  46  76 S12       29.79S
GILLAM         CLOUDY    57  50  77 N3        29.79R
$$
                ***SASKATCHEWAN***

CITY           SKY/WX    TMP DP  RH WIND       PRES   REMARKS
ESTEVAN        MOSUNNY   90  48  24 S16G24    29.72F
KINDERSLEY     MOSUNNY   75  39  27 NW10G21   29.68
LLOYDMINSTER   PTSUNNY   68  36  30 W15       29.67R
PRINCE ALBERT  MOSUNNY   77  46  33 SW12G20   29.60R
REGINA         PTSUNNY   81  43  26 W17G25    29.71S
YORKTON        SUNNY     82  43  24 S12G17    29.69F
N. BATTLEFORD  SUNNY     75  37  25 NW16G22   29.66R
LA RONGE       MOSUNNY   77  50  38 SE9G17    29.53S
SASKATOON      MOSUNNY   81  41  24 W18       29.66R
SWIFT CURRENT  SUNNY     79  36  21 W21       29.72S
$$
NOTE: THESE ARE AUTOMATED STATIONS WITH LIMITED QUALITY CONTROL
      "FAIR" INDICATES FEW OR NO CLOUDS BELOW 12,000 FEET WITH NO
      SIGNIFICANT WEATHER AND/OR OBSTRUCTIONS TO VISIBILITY.
      SKY/WX - SKY CONDITION AND SIGNIFICANT WEATHER.
      TMP - AIR TEMPERATURE.    DP   - DEWPOINT TEMPERATURE.
      RH  - RELATIVE HUMIDITY.  PRES - PRESSURE.
      HX  - HEAT INDEX.         WCI  - WIND CHILL INDEX.
$



USA.gov is the U.S. government's official web portal to all federal, state and local government web resources and services.